User: anonymous   Login
Location: Treviso
(45.6669°N, 12.2430°E)
Time: 23:09:20
(UTC+01:00)
Language:

ISS - Orbit

View from above orbital plane
View from above orbital plane
View from above satellite
View from above satellite

Ground track
Ground track

The orbit data is extracted from the following two-line orbital elements,

1 25544U 98067A   19024.56280803  .00016717  00000-0  10270-3 0  9016
2 25544  51.6393 355.5539 0004757 305.4116  54.6592 15.53199388 32937
Epoch (UTC): 24 January 2019 13:30:26
Eccentricity: 0.0004757
inclination: 51.6393°
perigee height: 404 km
apogee height: 410 km
right ascension of ascending node: 355.5539°
argument of perigee: 305.4116°
revolutions per day: 15.53199388
mean anomaly at epoch: 54.6592°
orbit number at epoch: 3293

The dashed part of the orbit path shows where the satellite is in the earth's shadow,  

DLR